Regional Weather Roundup
Issued by NWS

Home | Current Version | Previous Version | Graphics & Text | Print | Product List | Glossary On
Versions: 1 2 3 4 5 6 7 8 9 10 11 12 13 14 15 16 17 18 19 20 21 22 23 24 25 26 27 28 29 30 31 32 33 34 35 36 37 38 39 40 41 42 43 44 45 46 47 48 49 50
000
ASUS45 KBOU 200807
RWRCO

WEATHER ROUNDUP FOR COLORADO
NATIONAL WEATHER SERVICE DENVER/BOULDER CO
200 AM MDT WED AUG 20 2014

NOTE: "FAIR" INDICATES FEW OR NO CLOUDS BELOW 12000 FEET WITH NO
SIGNIFICANT WEATHER AND/OR OBSTRUCTIONS TO VISIBILITY.

COZ001>005-013-030-031-200900-
...NORTHWEST COLORADO...

CITY           SKY/WX    TMP DP  RH WIND       PRES   REMARKS
CRAIG          LGT RAIN  58  53  84 E5        30.04S
HAYDEN         CLOUDY    55  50  82 E7        30.06S
MEEKER         CLOUDY    58  54  86 CALM      30.05S
MOUNT WERNER   NOT AVBL
STEAMBOAT SPGS CLOUDY    53  52  95 SW3       30.08S
WALDEN         CLOUDY    50  46  87 SE6       30.14F
$$

COZ006>008-011-200900-
...WEST CENTRAL VALLEYS...

CITY           SKY/WX    TMP DP  RH WIND       PRES   REMARKS
GRAND JUNCTION LGT RAIN  62  61  96 CALM      29.98S
MONTROSE       CLOUDY    62  58  86 E6        30.05F
EAGLE          CLOUDY    57  57 100 W6        30.09F
RIFLE          CLOUDY    61  57  87 SE3       30.02S
DELTA          RAIN      64  62  91 NE3       30.02R
NUCLA          CLOUDY    64  54  68 CALM      30.09F
$$

COZ017>023-064>068-200900-
...SOUTHWEST COLORADO...

CITY           SKY/WX    TMP DP  RH WIND       PRES   REMARKS
DURANGO        CLOUDY    60  51  72 E6        30.11S
CORTEZ         MOCLDY    59  58  96 E3        30.08S
PAGOSA SPRINGS CLOUDY    55  54  97 NE3       30.17F
TELLURIDE      NOT AVBL
WOLF CREEK PAS NOT AVBL
$$

COZ009-010-012-014-032>034-037-058>063-200900-
...CENTRAL COLORADO...

CITY           SKY/WX    TMP DP  RH WIND       PRES   REMARKS
ASPEN          CLOUDY    54  52  93 CALM      30.12F
BUENA VISTA    CLOUDY    55  51  85 CALM      30.12F
COPPER MTN     CLOUDY    50  39  66 S23       30.39F
BERTHOUD PASS  CLOUDY    41  41 100 MISG      30.42F
COTTONWOOD PAS CLOUDY    55  41  58 W7        30.25F
GUNNISON       CLOUDY    57  46  67 NW3       30.15S
KREMMLING      CLOUDY    54  50  87 CALM      30.12F
LEADVILLE      LGT RAIN  47  46  97 E5        30.25F
MONARCH PASS   CLOUDY    43  37  81 SW20      30.48F
SALIDA         CLOUDY    59  51  75 SW7       30.17F
SUNLIGHT       CLOUDY    50  48  93 CALM      30.32F FOG
WILKERSON PASS CLOUDY    46  37  71 SW9G16    30.37S
$$

COZ069>075-200900-
...SAN LUIS VALLEY/SANGRE DE CRISTO MOUNTAINS...

CITY           SKY/WX    TMP DP  RH WIND       PRES   REMARKS
ALAMOSA        CLOUDY    61  42  49 S12       30.12F
LA VETA PASS   MOCLDY    54  37  54 S10G26    30.29S
SAGUACHE       CLOUDY    59  45  58 S3        30.15R
$$

COZ035-036-038>040-200900-
...NORTHERN COLORADO FRONT RANGE...

CITY           SKY/WX    TMP DP  RH WIND       PRES   REMARKS
DENVER INTL AP CLOUDY    64  55  72 SW6       29.92F
DMNS CITY PARK   N/A     66  53  64 S3        29.92S
AURORA         MOCLDY    64  54  71 S7        29.94F
FRONT RANGE AP CLOUDY    64  59  82 S3        29.93F
ERIE MUNI ARPT CLOUDY    64  53  67 CALM      29.91F
BOULDER MUN AP CLOUDY    64  52  63 NW3       29.92F
CENTENNIAL     CLOUDY    65  51  60 S5        29.95F
BROOMFIELD     CLOUDY    66  48  52 CALM      29.94F
FORT COLLINS   MOCLDY    63  54  72 NW6       29.92S
LONGMONT       MOCLDY    64  55  71 CALM      29.92F
$$

COZ041-046-047-076>085-087-088-200900-
...PIKES PEAK/PALMER DIVIDE AND SOUTHERN FOOTHILLS...

CITY           SKY/WX    TMP DP  RH WIND       PRES   REMARKS
COLO. SPRINGS  CLOUDY    63  50  62 W5        29.99F
A. F. ACADEMY  CLOUDY    59  52  77 NW3       30.01F
ELLICOTT       CLOUDY    64  47  53 E3        29.96F
FALCON         CLOUDY    63  47  55 CALM      30.03F
FORT CARSON    CLOUDY    63  50  63 NW8       29.96F
LIMON          CLOUDY    64  49  57 NW3       29.92F
MONUMENT HILL  CLOUDY    55  46  71 S6        30.03F
TRINIDAD       MOCLDY    68  47  46 SW12      29.97S
$$

COZ042>045-048>051-090-091-200900-
...NORTHEAST COLORADO...

CITY           SKY/WX    TMP DP  RH WIND       PRES   REMARKS
GREELEY ARPT   CLOUDY    63  52  67 CALM      29.90R
AKRON          CLOUDY    64  60  87 W3        29.88R
BURLINGTON     CLOUDY    74  57  55 S13       29.85F
WRAY             N/A     68  61  77 E5        29.82F
STERLING       CLOUDY    64  63  94 SE3       29.84R
HOLYOKE        NOT AVBL
FORT MORGAN    CLOUDY    63  56  79 S6        29.88R
$$

COZ086-089-092>099-200900-
...SOUTHEAST COLORADO...

CITY           SKY/WX    TMP DP  RH WIND       PRES   REMARKS
PUEBLO         CLOUDY    70  50  49 N7        29.86F
LA JUNTA       MOCLDY    76  53  44 SW13      29.84S
LAMAR          PTCLDY    76  56  49 S14       29.80F
SPRINGFIELD      N/A     71  58  63 S14       29.91F
$$



USA.gov is the U.S. government's official web portal to all federal, state and local government web resources and services.